Weather Roundup
Issued by NWS Springfield, MO

Current Version | Previous Version | Text Only | Print | Product List | Glossary On
Versions: 1 2 3 4 5 6 7 8 9 10 11 12 13 14 15 16 17 18 19 20 21 22 23 24 25 26 27 28 29 30 31 32 33 34 35 36 37 38 39 40 41 42 43 44 45 46 47 48 49 50
000
NZUS99 KSGF 250507
HRRSGF

HOURLY WEATHER
NATIONAL WEATHER SERVICE SPRINGFIELD MO
1200 AM CDT MON MAY 25 2015

......SGF CWA......

CITY           SKY/WX    TMP DP  RH WIND       PRES   REMARKS
SPRINGFIELD    LGT RAIN  63  61  93 S10       29.89R
JOPLIN         CLOUDY    61  60  97 SW6       29.90S
WEST PLAINS    CLOUDY    67  64  90 SW9G18    29.94S
ROLLA          CLOUDY    67  64  90 S16G33    29.84S
OSAGE BEACH    CLOUDY    64  63  94 S6        29.85S
BRANSON        MOCLDY    63  61  94 CALM      29.93S

......SURROUNDING SGF CWA......

CITY           SKY/WX    TMP DP  RH WIND       PRES   REMARKS
CHANUTE        CLOUDY    62  62 100 SE8       29.82F
PARSONS        CLOUDY    61  61 100 S5        29.89S
COFFEYVILLE    CLOUDY    62  62 100 S9        29.88S
EMPORIA        CLOUDY    62  58  86 NW9       29.84R
GROVE OK       CLOUDY    64  64 100 S5        29.92S
ROGERS AR      CLOUDY    62  61  96 SW8       29.94R
SILOAM SPRINGS CLOUDY    63  55  77 SW6       29.94S
HARRISON AR    MOCLDY    65  61  87 S9        29.94R
NEAR YELLVILLE CLOUDY    70  64  83 S5        29.91S

......KANSAS AND MISSOURI......

CITY           SKY/WX    TMP DP  RH WIND       PRES   REMARKS
KANSAS CTY INT CLOUDY    63  62  97 S6        29.83F
DOWNTOWN KC    CLOUDY    65  62  90 S3        29.82F
COLUMBIA       RAIN      65  64  97 CALM      29.82S FOG
SEDALIA        CLOUDY    65  63  93 SW6       29.84S
ST JOSEPH      CLOUDY    64  62  93 S5        29.82S
ST LOUIS       CLOUDY    70  64  81 S15       29.89S
SPIRIT OF STL  CLOUDY    69  66  90 VRB5      29.87R
KIRKSVILLE     LGT RAIN  64  64 100 CALM      29.82F FOG
WICHITA        CLOUDY    60  58  92 SE8       29.85F
TOPEKA         CLOUDY    64  62  93 W5        29.82S
OLATHE         CLOUDY    63  62  97 SW5       29.83S

......TENNESSEE......

CITY           SKY/WX    TMP DP  RH WIND       PRES   REMARKS
MEMPHIS        TSTM      70  67  90 S5        30.04R
NASHVILLE      CLOUDY    72  65  78 S13       30.13F

......ARKANSAS.......

CITY           SKY/WX    TMP DP  RH WIND       PRES   REMARKS
FAYETTEVILLE   MOCLDY    62  61  96 S8        29.93R
FT SMITH       FOG       62  60  93 E3        29.92F VSB 1/2
LITTLE ROCK    RAIN      71  66  84 SW8       29.98S FOG

......OKLAHOMA.......

CITY           SKY/WX    TMP DP  RH WIND       PRES   REMARKS
TULSA          CLOUDY    62  62 100 S8        29.89S
PONCA CITY     CLEAR     62  61  96 SE12      29.86R
MCALESTER      FOG       63  62  97 CALM      29.91F VSB 3/4
OKLAHOMA CITY  CLOUDY    64  63  96 SE15      29.87F

......IOWA............

CITY           SKY/WX    TMP DP  RH WIND       PRES   REMARKS
DES MOINES     CLOUDY    65  62  90 S6        29.78S
QUAD CITIES    CLOUDY    68  65  90 SE8       29.83F

......ILLINOIS........

CITY           SKY/WX    TMP DP  RH WIND       PRES   REMARKS
QUINCY         CLOUDY    68  65  90 SE13      29.80F
CHICAGO        MOCLDY    68  62  81 S9        29.91S



USA.gov is the U.S. government's official web portal to all federal, state and local government web resources and services.